Flag for U.S.A. Weather past 2 weeks in Cedar Rapids, Iowa, U.S.A.

Now
59 °F

Clear.


Feels Like: 59 °F
Forecast: 57 / 82 °F
Wind: No wind

Location: Cedar Rapids Municipal Airport

Current Time: Jul 4, 2015 at 2:08:34 AM

Latest Report: Jul 4, 2015 at 12:52 AM


Visibility: 10 mi

Pressure: 29.96 "Hg

Humidity: 96%

Dew point: 58 °F

Location of Cedar RapidsLocation

Historic Weather in Cedar Rapids — Graph

°F

Cedar Rapids temperature yesterday

Maximum temperature yesterday: 77 °F (at 4:52 PM)
Minimum temperature yesterday: 54 °F (at 5:52 AM)
Average temperature yesterday: 66 °F

Past Weeks' High & Low Weather Summary

 TemperatureHumidityPressure
High81 °F (Jun 20, 4:52 PM)100% (Jun 20, 6:52 PM)30.18 "Hg (Jun 20, 6:52 PM)
Low54 °F (Jul 3, 5:52 AM)45% (Jun 27, 3:52 PM)29.72 "Hg (Jun 22, 5:52 PM)
Average68 °F83%29.93 "Hg
* Reported Jun 19 12:52 AM — Jul 4 12:52 AM, Cedar Rapids, Weather by CustomWeather, © 2015

Note: Actual official high and low records may vary slightly from our data, if they occured in-between our weather recording intervals... More about our weather records

Advertising

Cedar Rapids weather history for previous 24 hours

 ConditionsComfort  
Time TempWeatherWind HumidityBarometerVisibility
12:52 AM
Sat, Jul 4
59 °FClear.No wind96%29.96 "Hg10 mi
11:52 PM
Fri, Jul 3
59 °FClear.No wind96%29.96 "Hg10 mi
10:52 PM59 °FClear.No wind93%29.95 "Hg10 mi
9:52 PM67 °FClear.3 mph73%29.93 "Hg10 mi
8:52 PM69 °FSunny.3 mph73%29.92 "Hg10 mi
7:52 PM73 °FSunny.3 mph62%29.92 "Hg10 mi
6:52 PM74 °FSunny.6 mph57%29.93 "Hg10 mi
5:52 PM76 °FSunny.5 mph47%29.93 "Hg10 mi
4:52 PM77 °FSunny.6 mph48%29.93 "Hg10 mi
3:52 PM76 °FSunny.5 mph47%29.94 "Hg10 mi
2:52 PM75 °FSunny.3 mph50%29.95 "Hg10 mi
1:52 PM74 °FSunny.No wind52%29.97 "Hg10 mi
12:52 PM73 °FSunny.3 mph55%29.98 "Hg10 mi
11:52 AM72 °FSunny.6 mph55%29.98 "Hg10 mi
10:52 AM70 °FSunny.5 mph59%29.98 "Hg10 mi
9:52 AM68 °FSunny.3 mph73%29.98 "Hg10 mi
8:52 AM64 °FSunny.5 mph81%29.99 "Hg10 mi
7:52 AM61 °FSunny.3 mph83%29.98 "Hg10 mi
6:52 AM57 °FSunny.5 mph93%29.98 "Hg10 mi
5:52 AM54 °FClear.5 mph100%29.96 "Hg10 mi
4:52 AM57 °FClear.5 mph87%29.96 "Hg10 mi
3:52 AM57 °FClear.5 mph90%29.96 "Hg10 mi
2:52 AM59 °FClear.3 mph90%29.96 "Hg10 mi
Weather by CustomWeather, © 2015

See weather overviewHow to use our weather pages